When you browse on this site, cookies collect data to enhance your experience and personalize the content and advertising you see.
Visit our Privacy Policy to learn more. By continuing to use the site, you agree to this use of cookies and data.
  • In Hungary
  • List of Countries
  • For 7 days
  • Water Temperature
  • Weather Map
  • News
  • Weather Widgets
  • user-avatar
    Login

    Hourly Weather Banda

    Today, 26 February, Wednesday

    Time Temperature Precipitation Wind Pressure Humidity
    00:00 +16°C° 0 mm 0 mps 719 mmHg 32%
    01:00 +18°C° 0 mm 1 mps 719 mmHg 33%
    02:00 +18°C° 0 mm 1 mps 719 mmHg 33%
    03:00 +16°C° 0 mm 1 mps 719 mmHg 33%
    04:00 +16°C° 0 mm 1 mps 719 mmHg 33%
    05:00 +16°C° 0 mm 1 mps 719 mmHg 32%
    06:00 +18°C° 0 mm 1 mps 720 mmHg 29%
    07:00 +20°C° 0 mm 1 mps 720 mmHg 26%
    08:00 +22°C° 0 mm 1 mps 721 mmHg 23%
    09:00 +25°C° 0 mm 1 mps 721 mmHg 22%
    10:00 +27°C° 0 mm 2 mps 721 mmHg 20%
    11:00 +29°C° 0 mm 2 mps 721 mmHg 19%
    12:00 +30°C° 0 mm 3 mps 721 mmHg 17%
    13:00 +30°C° 0 mm 4 mps 720 mmHg 16%
    14:00 +32°C° 0 mm 4 mps 719 mmHg 15%
    15:00 +32°C° 0 mm 4 mps 719 mmHg 15%
    16:00 +30°C° 0 mm 3 mps 719 mmHg 16%
    17:00 +29°C° 0 mm 3 mps 719 mmHg 18%
    18:00 +26°C° 0 mm 2 mps 719 mmHg 21%
    19:00 +24°C° 0 mm 2 mps 720 mmHg 23%
    20:00 +22°C° 0 mm 1 mps 720 mmHg 26%
    21:00 +21°C° 0 mm 1 mps 720 mmHg 28%
    22:00 +21°C° 0 mm 1 mps 720 mmHg 30%
    23:00 +20°C° 0 mm 1 mps 721 mmHg 31%

    Tomorrow, 27 February, Thursday

    Time Temperature Precipitation Wind Pressure Humidity
    00:00 +18°C° 0 mm 2 mps 720 mmHg 34%
    01:00 +18°C° 0 mm 2 mps 720 mmHg 37%
    02:00 +17°C° 0 mm 3 mps 719 mmHg 40%
    03:00 +17°C° 0 mm 3 mps 719 mmHg 42%
    04:00 +16°C° 0 mm 2 mps 719 mmHg 44%
    05:00 +16°C° 0 mm 2 mps 719 mmHg 46%
    06:00 +18°C° 0 mm 2 mps 720 mmHg 42%
    07:00 +19°C° 0 mm 2 mps 720 mmHg 38%
    08:00 +21°C° 0 mm 3 mps 721 mmHg 34%
    09:00 +25°C° 0 mm 2 mps 721 mmHg 29%
    10:00 +27°C° 0 mm 2 mps 721 mmHg 24%
    11:00 +30°C° 0 mm 2 mps 721 mmHg 19%
    12:00 +31°C° 0 mm 2 mps 720 mmHg 18%
    13:00 +33°C° 0 mm 3 mps 720 mmHg 16%
    14:00 +34°C° 0 mm 3 mps 719 mmHg 14%
    15:00 +33°C° 0 mm 3 mps 718 mmHg 15%
    16:00 +33°C° 0 mm 3 mps 718 mmHg 15%
    17:00 +31°C° 0 mm 3 mps 718 mmHg 16%
    18:00 +29°C° 0 mm 3 mps 718 mmHg 19%
    19:00 +26°C° 0 mm 3 mps 718 mmHg 23%
    20:00 +24°C° 0 mm 3 mps 719 mmHg 27%
    21:00 +22°C° 0 mm 3 mps 719 mmHg 29%
    22:00 +21°C° 0 mm 2 mps 719 mmHg 32%
    23:00 +20°C° 0 mm 2 mps 719 mmHg 35%

    Day after tomorrow, 28 February, Friday

    Time Temperature Precipitation Wind Pressure Humidity
    00:00 +19°C° 0 mm 2 mps 718 mmHg 36%
    01:00 +19°C° 0 mm 2 mps 718 mmHg 37%
    02:00 +18°C° 0 mm 2 mps 717 mmHg 39%
    03:00 +18°C° 0 mm 2 mps 717 mmHg 39%
    04:00 +18°C° 0 mm 3 mps 717 mmHg 40%
    05:00 +17°C° 0 mm 3 mps 717 mmHg 40%
    06:00 +19°C° 0 mm 3 mps 718 mmHg 37%
    07:00 +21°C° 0 mm 3 mps 718 mmHg 33%
    08:00 +24°C° 0 mm 3 mps 719 mmHg 30%
    09:00 +26°C° 0 mm 3 mps 719 mmHg 26%
    10:00 +29°C° 0 mm 3 mps 719 mmHg 22%
    11:00 +31°C° 0 mm 3 mps 719 mmHg 18%
    12:00 +33°C° 0 mm 3 mps 718 mmHg 16%
    13:00 +34°C° 0 mm 2 mps 718 mmHg 15%
    14:00 +34°C° 0 mm 1 mps 717 mmHg 14%
    15:00 +35°C° 0 mm 2 mps 717 mmHg 14%
    16:00 +34°C° 0 mm 2 mps 716 mmHg 15%
    17:00 +32°C° 0 mm 2 mps 716 mmHg 16%
    18:00 +30°C° 0 mm 2 mps 717 mmHg 18%
    19:00 +28°C° 0 mm 3 mps 717 mmHg 21%
    20:00 +26°C° 0 mm 3 mps 717 mmHg 24%
    21:00 +25°C° 0 mm 3 mps 717 mmHg 27%
    22:00 +23°C° 0 mm 4 mps 717 mmHg 29%
    23:00 +23°C° 0 mm 4 mps 717 mmHg 31%

    29 February, Saturday

    Time Temperature Precipitation Wind Pressure Humidity
    00:00 +22°C° 0 mm 4 mps 717 mmHg 33%
    01:00 +21°C° 0 mm 4 mps 716 mmHg 35%
    02:00 +20°C° 0 mm 3 mps 716 mmHg 37%
    03:00 +20°C° 0 mm 3 mps 716 mmHg 37%
    04:00 +20°C° 0 mm 3 mps 716 mmHg 38%
    05:00 +19°C° 0 mm 3 mps 716 mmHg 39%
    06:00 +21°C° 0 mm 3 mps 716 mmHg 35%
    07:00 +24°C° 0 mm 3 mps 717 mmHg 32%
    08:00 +25°C° 0 mm 4 mps 718 mmHg 28%
    09:00 +28°C° 0 mm 4 mps 718 mmHg 24%
    10:00 +32°C° 0 mm 4 mps 718 mmHg 20%
    11:00 +35°C° 0 mm 4 mps 718 mmHg 16%
    12:00 +35°C° 0 mm 4 mps 717 mmHg 15%
    13:00 +36°C° 0 mm 3 mps 717 mmHg 14%
    14:00 +37°C° 0 mm 3 mps 716 mmHg 13%
    15:00 +36°C° 0 mm 2 mps 715 mmHg 14%
    16:00 +34°C° 0 mm 1 mps 715 mmHg 15%
    17:00 +31°C° 0 mm 0 mps 715 mmHg 16%
    18:00 +31°C° 0.1 mm 1 mps 715 mmHg 20%
    19:00 +29°C° 0.1 mm 1 mps 716 mmHg 24%
    20:00 +26°C° 0.1 mm 1 mps 717 mmHg 29%
    21:00 +25°C° 0.1 mm 2 mps 717 mmHg 32%
    22:00 +24°C° 0.1 mm 2 mps 717 mmHg 36%
    23:00 +23°C° 0.1 mm 2 mps 717 mmHg 40%

    1 March, Sunday

    Time Temperature Precipitation Wind Pressure Humidity
    00:00 +22°C° 0 mm 3 mps 716 mmHg 41%
    01:00 +22°C° 0 mm 3 mps 716 mmHg 42%
    02:00 +21°C° 0 mm 3 mps 716 mmHg 42%
    03:00 +21°C° 0 mm 3 mps 716 mmHg 43%
    04:00 +21°C° 0 mm 3 mps 716 mmHg 44%
    05:00 +20°C° 0 mm 3 mps 716 mmHg 45%
    06:00 +22°C° 0 mm 3 mps 716 mmHg 41%
    07:00 +25°C° 0 mm 3 mps 717 mmHg 37%
    08:00 +27°C° 0 mm 4 mps 718 mmHg 33%
    09:00 +30°C° 0 mm 4 mps 718 mmHg 28%
    10:00 +33°C° 0 mm 4 mps 718 mmHg 23%
    11:00 +36°C° 0 mm 4 mps 718 mmHg 18%
    12:00 +36°C° 0 mm 4 mps 717 mmHg 17%
    13:00 +36°C° 0 mm 4 mps 716 mmHg 15%
    14:00 +37°C° 0 mm 4 mps 716 mmHg 14%
    15:00 +36°C° 0 mm 4 mps 715 mmHg 14%
    16:00 +36°C° 0 mm 4 mps 715 mmHg 14%
    17:00 +36°C° 0 mm 4 mps 715 mmHg 14%
    18:00 +33°C° 0 mm 3 mps 715 mmHg 16%
    19:00 +30°C° 0 mm 3 mps 716 mmHg 18%
    20:00 +28°C° 0 mm 2 mps 716 mmHg 20%
    21:00 +27°C° 0 mm 2 mps 716 mmHg 21%
    22:00 +26°C° 0 mm 2 mps 716 mmHg 23%
    23:00 +24°C° 0 mm 1 mps 716 mmHg 24%

    2 March, Monday

    Time Temperature Precipitation Wind Pressure Humidity
    00:00 +24°C° 0 mm 2 mps 716 mmHg 24%
    01:00 +24°C° 0 mm 2 mps 715 mmHg 24%
    02:00 +23°C° 0 mm 2 mps 715 mmHg 24%
    03:00 +23°C° 0 mm 2 mps 715 mmHg 25%
    04:00 +21°C° 0 mm 2 mps 715 mmHg 27%
    05:00 +20°C° 0 mm 2 mps 715 mmHg 28%
    06:00 +23°C° 0 mm 2 mps 716 mmHg 25%
    07:00 +25°C° 0 mm 2 mps 717 mmHg 23%
    08:00 +27°C° 0 mm 2 mps 718 mmHg 21%
    09:00 +30°C° 0 mm 2 mps 718 mmHg 18%
    10:00 +32°C° 0 mm 2 mps 718 mmHg 15%
    11:00 +35°C° 0 mm 1 mps 718 mmHg 13%
    12:00 +36°C° 0 mm 3 mps 717 mmHg 12%
    13:00 +37°C° 0 mm 5 mps 717 mmHg 12%
    14:00 +39°C° 0 mm 6 mps 716 mmHg 11%
    15:00 +37°C° 0 mm 5 mps 715 mmHg 11%
    16:00 +36°C° 0 mm 5 mps 715 mmHg 12%
    17:00 +35°C° 0 mm 4 mps 715 mmHg 12%
    18:00 +33°C° 0 mm 3 mps 715 mmHg 13%
    19:00 +29°C° 0 mm 3 mps 715 mmHg 15%
    20:00 +27°C° 0 mm 2 mps 716 mmHg 17%
    21:00 +26°C° 0 mm 3 mps 716 mmHg 17%
    22:00 +26°C° 0 mm 3 mps 716 mmHg 18%
    23:00 +25°C° 0 mm 3 mps 716 mmHg 18%
    Show more